Year,Month,Day,Hour,Minute,Value (Times are PST for temperature in C)
2010,06,21,00,00,11.40
2010,06,21,00,01,11.40
2010,06,21,00,02,11.40
2010,06,21,00,03,11.30
2010,06,21,00,04,11.30
2010,06,21,00,05,11.30
2010,06,21,00,06,11.30
2010,06,21,00,07,11.30
2010,06,21,00,08,11.30
2010,06,21,00,09,11.30
2010,06,21,00,10,11.30
2010,06,21,00,11,11.30
2010,06,21,00,12,11.30
2010,06,21,00,13,11.30
2010,06,21,00,14,11.30
2010,06,21,00,15,11.30
2010,06,21,00,16,11.30
2010,06,21,00,17,11.30
2010,06,21,00,18,11.20
2010,06,21,00,19,11.20
2010,06,21,00,20,11.20
2010,06,21,00,21,11.20
2010,06,21,00,22,11.20
2010,06,21,00,23,11.20
2010,06,21,00,24,11.20
2010,06,21,00,25,11.20
2010,06,21,00,26,11.20
2010,06,21,00,27,11.20
2010,06,21,00,28,11.20
2010,06,21,00,29,11.20
2010,06,21,00,30,11.20
2010,06,21,00,31,11.20
2010,06,21,00,32,11.20
2010,06,21,00,33,11.20
2010,06,21,00,34,11.20
2010,06,21,00,35,11.20
2010,06,21,00,36,11.10
2010,06,21,00,37,11.10
2010,06,21,00,38,11.10
2010,06,21,00,39,11.10
2010,06,21,00,40,11.10
2010,06,21,00,41,11.10
2010,06,21,00,42,11.10
2010,06,21,00,43,11.10
2010,06,21,00,44,11.10
2010,06,21,00,45,11.10
2010,06,21,00,46,11.10
2010,06,21,00,47,11.10
2010,06,21,00,48,11.10
2010,06,21,00,49,11.10
2010,06,21,00,50,11.10
2010,06,21,00,51,11.10
2010,06,21,00,52,11.10
2010,06,21,00,53,11.10
2010,06,21,00,54,11.10
2010,06,21,00,55,11.10
2010,06,21,00,56,11.10
2010,06,21,00,57,11.10
2010,06,21,00,58,11.10
2010,06,21,00,59,11.00
2010,06,21,01,00,11.00
2010,06,21,01,01,11.00
2010,06,21,01,02,11.00
2010,06,21,01,03,11.00
2010,06,21,01,04,11.00
2010,06,21,01,05,11.00
2010,06,21,01,06,11.00
2010,06,21,01,07,11.00
2010,06,21,01,08,11.00
2010,06,21,01,09,11.00
2010,06,21,01,10,11.00
2010,06,21,01,11,10.90
2010,06,21,01,12,10.90
2010,06,21,01,13,10.90
2010,06,21,01,14,10.90
2010,06,21,01,15,10.90
2010,06,21,01,16,10.90
2010,06,21,01,17,10.90
2010,06,21,01,18,10.90
2010,06,21,01,19,10.90
2010,06,21,01,20,10.90
2010,06,21,01,21,10.90
2010,06,21,01,22,10.80
2010,06,21,01,23,10.80
2010,06,21,01,24,10.80
2010,06,21,01,25,10.80
2010,06,21,01,26,10.80
2010,06,21,01,27,10.80
2010,06,21,01,28,10.80
2010,06,21,01,29,10.80
2010,06,21,01,30,10.80
2010,06,21,01,31,10.80
2010,06,21,01,32,10.70
2010,06,21,01,33,10.70
2010,06,21,01,34,10.70
2010,06,21,01,35,10.70
2010,06,21,01,36,10.70
2010,06,21,01,37,10.70
2010,06,21,01,38,10.70
2010,06,21,01,39,10.70
2010,06,21,01,40,10.70
2010,06,21,01,41,10.70
2010,06,21,01,42,10.70
2010,06,21,01,43,10.60
2010,06,21,01,44,10.60
2010,06,21,01,45,10.60
2010,06,21,01,46,10.60
2010,06,21,01,47,10.60
2010,06,21,01,48,10.60
2010,06,21,01,49,10.60
2010,06,21,01,50,10.60
2010,06,21,01,51,10.60
2010,06,21,01,52,10.60
2010,06,21,01,53,10.50
2010,06,21,01,54,10.50
2010,06,21,01,55,10.50
2010,06,21,01,56,10.50
2010,06,21,01,57,10.50
2010,06,21,01,58,10.50
2010,06,21,01,59,10.50
2010,06,21,02,00,10.50
2010,06,21,02,01,10.50
2010,06,21,02,02,10.50
2010,06,21,02,03,10.50
2010,06,21,02,04,10.50
2010,06,21,02,05,10.40
2010,06,21,02,06,10.40
2010,06,21,02,07,10.40
2010,06,21,02,08,10.40
2010,06,21,02,09,10.40
2010,06,21,02,10,10.40
2010,06,21,02,11,10.40
2010,06,21,02,12,10.40
2010,06,21,02,13,10.40
2010,06,21,02,14,10.40
2010,06,21,02,15,10.40
2010,06,21,02,16,10.40
2010,06,21,02,17,10.40
2010,06,21,02,18,10.40
2010,06,21,02,19,10.40
2010,06,21,02,20,10.40
2010,06,21,02,21,10.40
2010,06,21,02,22,10.40
2010,06,21,02,23,10.40
2010,06,21,02,24,10.50
2010,06,21,02,25,10.50
2010,06,21,02,26,10.50
2010,06,21,02,27,10.50
2010,06,21,02,28,10.50
2010,06,21,02,29,10.50
2010,06,21,02,30,10.60
2010,06,21,02,31,10.60
2010,06,21,02,32,10.60
2010,06,21,02,33,10.60
2010,06,21,02,34,10.60
2010,06,21,02,35,10.60
2010,06,21,02,36,10.60
2010,06,21,02,37,10.60
2010,06,21,02,38,10.60
2010,06,21,02,39,10.60
2010,06,21,02,40,10.60
2010,06,21,02,41,10.70
2010,06,21,02,42,10.70
2010,06,21,02,43,10.70
2010,06,21,02,44,10.70
2010,06,21,02,45,10.70
2010,06,21,02,46,10.70
2010,06,21,02,47,10.70
2010,06,21,02,48,10.70
2010,06,21,02,49,10.70
2010,06,21,02,50,10.70
2010,06,21,02,51,10.70
2010,06,21,02,52,10.70
2010,06,21,02,53,10.80
2010,06,21,02,54,10.80
2010,06,21,02,55,10.80
2010,06,21,02,56,10.80
2010,06,21,02,57,10.80
2010,06,21,02,58,10.80
2010,06,21,02,59,10.80
2010,06,21,03,00,10.80
2010,06,21,03,01,10.80
2010,06,21,03,02,10.80
2010,06,21,03,03,10.80
2010,06,21,03,04,10.80
2010,06,21,03,05,10.80
2010,06,21,03,06,10.80
2010,06,21,03,07,10.90
2010,06,21,03,08,10.90
2010,06,21,03,09,10.90
2010,06,21,03,10,10.90
2010,06,21,03,11,10.90
2010,06,21,03,12,10.90
2010,06,21,03,13,10.90
2010,06,21,03,14,10.90
2010,06,21,03,15,10.90
2010,06,21,03,16,10.90
2010,06,21,03,17,10.90
2010,06,21,03,18,10.90
2010,06,21,03,19,10.90
2010,06,21,03,20,10.90
2010,06,21,03,21,10.90
2010,06,21,03,22,10.80
2010,06,21,03,23,10.80
2010,06,21,03,24,10.80
2010,06,21,03,25,10.80
2010,06,21,03,26,10.80
2010,06,21,03,27,10.80
2010,06,21,03,28,10.80
2010,06,21,03,29,10.80
2010,06,21,03,30,10.80
2010,06,21,03,31,10.80
2010,06,21,03,32,10.80
2010,06,21,03,33,10.80
2010,06,21,03,34,10.80
2010,06,21,03,35,10.80
2010,06,21,03,36,10.80
2010,06,21,03,37,10.80
2010,06,21,03,38,10.80
2010,06,21,03,39,10.90
2010,06,21,03,40,10.90
2010,06,21,03,41,10.90
2010,06,21,03,42,10.90
2010,06,21,03,43,10.90
2010,06,21,03,44,10.90
2010,06,21,03,45,10.90
2010,06,21,03,46,10.90
2010,06,21,03,47,10.90
2010,06,21,03,48,10.90
2010,06,21,03,49,10.90
2010,06,21,03,50,10.90
2010,06,21,03,51,10.90
2010,06,21,03,52,10.90
2010,06,21,03,53,10.90
2010,06,21,03,54,10.90
2010,06,21,03,55,10.90
2010,06,21,03,56,11.00
2010,06,21,03,57,11.00
2010,06,21,03,58,11.00
2010,06,21,03,59,11.00
2010,06,21,04,00,11.00
2010,06,21,04,01,11.00
2010,06,21,04,02,11.00
2010,06,21,04,03,11.00
2010,06,21,04,04,11.00
2010,06,21,04,05,11.00
2010,06,21,04,06,11.00
2010,06,21,04,07,11.00
2010,06,21,04,08,11.10
2010,06,21,04,09,11.10
2010,06,21,04,10,11.10
2010,06,21,04,11,11.10
2010,06,21,04,12,11.10
2010,06,21,04,13,11.10
2010,06,21,04,14,11.10
2010,06,21,04,15,11.10
2010,06,21,04,16,11.10
2010,06,21,04,17,11.10
2010,06,21,04,18,11.10
2010,06,21,04,19,11.10
2010,06,21,04,20,11.10
2010,06,21,04,21,11.10
2010,06,21,04,22,11.10
2010,06,21,04,23,11.10
2010,06,21,04,24,11.20
2010,06,21,04,25,11.20
2010,06,21,04,26,11.20
2010,06,21,04,27,11.20
2010,06,21,04,28,11.20
2010,06,21,04,29,11.20
2010,06,21,04,30,11.20
2010,06,21,04,31,11.20
2010,06,21,04,32,11.20
2010,06,21,04,33,11.20
2010,06,21,04,34,11.20
2010,06,21,04,35,11.20
2010,06,21,04,36,11.20
2010,06,21,04,37,11.20
2010,06,21,04,38,11.20
2010,06,21,04,39,11.20
2010,06,21,04,40,11.20
2010,06,21,04,41,11.20
2010,06,21,04,42,11.20
2010,06,21,04,43,11.20
2010,06,21,04,44,11.20
2010,06,21,04,45,11.20
2010,06,21,04,46,11.20
2010,06,21,04,47,11.20
2010,06,21,04,48,11.20
2010,06,21,04,49,11.20
2010,06,21,04,50,11.20
2010,06,21,04,51,11.20
2010,06,21,04,52,11.20
2010,06,21,04,53,11.20
2010,06,21,04,54,11.20
2010,06,21,04,55,11.20
2010,06,21,04,56,11.20
2010,06,21,04,57,11.20
2010,06,21,04,58,11.20
2010,06,21,04,59,11.20
2010,06,21,05,00,11.20
2010,06,21,05,01,11.20
2010,06,21,05,02,11.20
2010,06,21,05,03,11.20
2010,06,21,05,04,11.20
2010,06,21,05,05,11.20
2010,06,21,05,06,11.20
2010,06,21,05,07,11.20
2010,06,21,05,08,11.20
2010,06,21,05,09,11.20
2010,06,21,05,10,11.20
2010,06,21,05,11,11.20
2010,06,21,05,12,11.20
2010,06,21,05,13,11.20
2010,06,21,05,14,11.20
2010,06,21,05,15,11.20
2010,06,21,05,16,11.20
2010,06,21,05,17,11.20
2010,06,21,05,18,11.20
2010,06,21,05,19,11.20
2010,06,21,05,20,11.20
2010,06,21,05,21,11.20
2010,06,21,05,22,11.20
2010,06,21,05,23,11.20
2010,06,21,05,24,11.20
2010,06,21,05,25,11.20
2010,06,21,05,26,11.20
2010,06,21,05,27,11.20
2010,06,21,05,28,11.20
2010,06,21,05,29,11.20
2010,06,21,05,30,11.20
2010,06,21,05,31,11.20
2010,06,21,05,32,11.20
2010,06,21,05,33,11.20
2010,06,21,05,34,11.20
2010,06,21,05,35,11.20
2010,06,21,05,36,11.20
2010,06,21,05,37,11.20
2010,06,21,05,38,11.20
2010,06,21,05,39,11.20
2010,06,21,05,40,11.20
2010,06,21,05,41,11.20
2010,06,21,05,42,11.20
2010,06,21,05,43,11.20
2010,06,21,05,44,11.20
2010,06,21,05,45,11.30
2010,06,21,05,46,11.30
2010,06,21,05,47,11.30
2010,06,21,05,48,11.30
2010,06,21,05,49,11.30
2010,06,21,05,50,11.30
2010,06,21,05,51,11.30
2010,06,21,05,52,11.30
2010,06,21,05,53,11.30
2010,06,21,05,54,11.30
2010,06,21,05,55,11.30
2010,06,21,05,56,11.30
2010,06,21,05,57,11.30
2010,06,21,05,58,11.30
2010,06,21,05,59,11.30
2010,06,21,06,00,11.30
2010,06,21,06,01,11.30
2010,06,21,06,02,11.30
2010,06,21,06,03,11.30
2010,06,21,06,04,11.30
2010,06,21,06,05,11.30
2010,06,21,06,06,11.30
2010,06,21,06,07,11.30
2010,06,21,06,08,11.30
2010,06,21,06,09,11.30
2010,06,21,06,10,11.30
2010,06,21,06,11,11.30
2010,06,21,06,12,11.30
2010,06,21,06,13,11.30
2010,06,21,06,14,11.30
2010,06,21,06,15,11.30
2010,06,21,06,16,11.30
2010,06,21,06,17,11.30
2010,06,21,06,18,11.30
2010,06,21,06,19,11.30
2010,06,21,06,20,11.30
2010,06,21,06,21,11.30
2010,06,21,06,22,11.30
2010,06,21,06,23,11.30
2010,06,21,06,24,11.30
2010,06,21,06,25,11.30
2010,06,21,06,26,11.30
2010,06,21,06,27,11.30
2010,06,21,06,28,11.30
2010,06,21,06,29,11.30
2010,06,21,06,30,11.30
2010,06,21,06,31,11.30
2010,06,21,06,32,11.30
2010,06,21,06,33,11.30
2010,06,21,06,34,11.30
2010,06,21,06,35,11.30
2010,06,21,06,36,11.30
2010,06,21,06,37,11.30
2010,06,21,06,38,11.30
2010,06,21,06,39,11.40
2010,06,21,06,40,11.40
2010,06,21,06,41,11.40
2010,06,21,06,42,11.40
2010,06,21,06,43,11.40
2010,06,21,06,44,11.40
2010,06,21,06,45,11.40
2010,06,21,06,46,11.40
2010,06,21,06,47,11.40
2010,06,21,06,48,11.40
2010,06,21,06,49,11.40
2010,06,21,06,50,11.40
2010,06,21,06,51,11.40
2010,06,21,06,52,11.40
2010,06,21,06,53,11.40
2010,06,21,06,54,11.50
2010,06,21,06,55,11.50
2010,06,21,06,56,11.50
2010,06,21,06,57,11.50
2010,06,21,06,58,11.50
2010,06,21,06,59,11.50
2010,06,21,07,00,11.50
2010,06,21,07,01,11.60
2010,06,21,07,02,11.60
2010,06,21,07,03,11.60
2010,06,21,07,04,11.60
2010,06,21,07,05,11.60
2010,06,21,07,06,11.60
2010,06,21,07,07,11.60
2010,06,21,07,08,11.60
2010,06,21,07,09,11.60
2010,06,21,07,10,11.60
2010,06,21,07,11,11.60
2010,06,21,07,12,11.60
2010,06,21,07,13,11.70
2010,06,21,07,14,11.70
2010,06,21,07,15,11.70
2010,06,21,07,16,11.70
2010,06,21,07,17,11.70
2010,06,21,07,18,11.70
2010,06,21,07,19,11.70
2010,06,21,07,20,11.70
2010,06,21,07,21,11.70
2010,06,21,07,22,11.70
2010,06,21,07,23,11.70
2010,06,21,07,24,11.70
2010,06,21,07,25,11.80
2010,06,21,07,26,11.80
2010,06,21,07,27,11.80
2010,06,21,07,28,11.80
2010,06,21,07,29,11.80
2010,06,21,07,30,11.80
2010,06,21,07,31,11.80
2010,06,21,07,32,11.80
2010,06,21,07,33,11.80
2010,06,21,07,34,11.80
2010,06,21,07,35,11.80
2010,06,21,07,36,11.80
2010,06,21,07,37,11.90
2010,06,21,07,38,11.90
2010,06,21,07,39,11.90
2010,06,21,07,40,11.90
2010,06,21,07,41,11.90
2010,06,21,07,42,11.90
2010,06,21,07,43,11.90
2010,06,21,07,44,11.90
2010,06,21,07,45,11.90
2010,06,21,07,46,11.90
2010,06,21,07,47,11.90
2010,06,21,07,48,11.90
2010,06,21,07,49,11.90
2010,06,21,07,50,11.90
2010,06,21,07,51,11.90
2010,06,21,07,52,11.90
2010,06,21,07,53,11.90
2010,06,21,07,54,12.00
2010,06,21,07,55,12.00
2010,06,21,07,56,12.00
2010,06,21,07,57,12.00
2010,06,21,07,58,12.00
2010,06,21,07,59,12.00
2010,06,21,08,00,12.00
2010,06,21,08,01,12.00
2010,06,21,08,02,12.00
2010,06,21,08,03,12.00
2010,06,21,08,04,12.00
2010,06,21,08,05,12.00
2010,06,21,08,06,12.00
2010,06,21,08,07,12.00
2010,06,21,08,08,12.00
2010,06,21,08,09,12.10
2010,06,21,08,10,12.10
2010,06,21,08,11,12.10
2010,06,21,08,12,12.10
2010,06,21,08,13,12.10
2010,06,21,08,14,12.10
2010,06,21,08,15,12.10
2010,06,21,08,16,12.10
2010,06,21,08,17,12.20
2010,06,21,08,18,12.20
2010,06,21,08,19,12.20
2010,06,21,08,20,12.20
2010,06,21,08,21,12.20
2010,06,21,08,22,12.30
2010,06,21,08,23,12.30
2010,06,21,08,24,12.30
2010,06,21,08,25,12.30
2010,06,21,08,26,12.30
2010,06,21,08,27,12.30
2010,06,21,08,28,12.30
2010,06,21,08,29,12.30
2010,06,21,08,30,12.30
2010,06,21,08,31,12.30
2010,06,21,08,32,12.30
2010,06,21,08,33,12.30
2010,06,21,08,34,12.30
2010,06,21,08,35,12.30
2010,06,21,08,36,12.40
2010,06,21,08,37,12.40
2010,06,21,08,38,12.40
2010,06,21,08,39,12.40
2010,06,21,08,40,12.40
2010,06,21,08,41,12.40
2010,06,21,08,42,12.40
2010,06,21,08,43,12.40
2010,06,21,08,44,12.40
2010,06,21,08,45,12.40
2010,06,21,08,46,12.50
2010,06,21,08,47,12.50
2010,06,21,08,48,12.50
2010,06,21,08,49,12.60
2010,06,21,08,50,12.60
2010,06,21,08,51,12.60
2010,06,21,08,52,12.60
2010,06,21,08,53,12.60
2010,06,21,08,54,12.60
2010,06,21,08,55,12.60
2010,06,21,08,56,12.60
2010,06,21,08,57,12.60
2010,06,21,08,58,12.60
2010,06,21,08,59,12.60
2010,06,21,09,00,12.60
2010,06,21,09,01,12.60
2010,06,21,09,02,12.60
2010,06,21,09,03,12.60
2010,06,21,09,04,12.60
2010,06,21,09,05,12.70
2010,06,21,09,06,12.70
2010,06,21,09,07,12.70
2010,06,21,09,08,12.70
2010,06,21,09,09,12.80
2010,06,21,09,10,12.80
2010,06,21,09,11,12.90
2010,06,21,09,12,13.00
2010,06,21,09,13,13.00
2010,06,21,09,14,13.00
2010,06,21,09,15,12.90
2010,06,21,09,16,12.90
2010,06,21,09,17,12.90
2010,06,21,09,18,12.80
2010,06,21,09,19,12.90
2010,06,21,09,20,12.90
2010,06,21,09,21,12.90
2010,06,21,09,22,12.90
2010,06,21,09,23,12.90
2010,06,21,09,24,12.90
2010,06,21,09,25,12.90
2010,06,21,09,26,12.90
2010,06,21,09,27,13.00
2010,06,21,09,28,13.00
2010,06,21,09,29,13.10
2010,06,21,09,30,13.10
2010,06,21,09,31,13.10
2010,06,21,09,32,13.10
2010,06,21,09,33,13.10
2010,06,21,09,34,13.20
2010,06,21,09,35,13.20
2010,06,21,09,36,13.20
2010,06,21,09,37,13.20
2010,06,21,09,38,13.20
2010,06,21,09,39,13.20
2010,06,21,09,40,13.30
2010,06,21,09,41,13.30
2010,06,21,09,42,13.30
2010,06,21,09,43,13.30
2010,06,21,09,44,13.30
2010,06,21,09,45,13.20
2010,06,21,09,46,13.20
2010,06,21,09,47,13.20
2010,06,21,09,48,13.20
2010,06,21,09,49,13.30
2010,06,21,09,50,13.30
2010,06,21,09,51,13.30
2010,06,21,09,52,13.30
2010,06,21,09,53,13.30
2010,06,21,09,54,13.30
2010,06,21,09,55,13.30
2010,06,21,09,56,13.30
2010,06,21,09,57,13.30
2010,06,21,09,58,13.30
2010,06,21,09,59,13.20
2010,06,21,10,00,13.20
2010,06,21,10,01,13.20
2010,06,21,10,02,13.20
2010,06,21,10,03,13.20
2010,06,21,10,04,13.20
2010,06,21,10,05,13.30
2010,06,21,10,06,13.30
2010,06,21,10,07,13.30
2010,06,21,10,08,13.20
2010,06,21,10,09,13.20
2010,06,21,10,10,13.20
2010,06,21,10,11,13.20
2010,06,21,10,12,13.20
2010,06,21,10,13,13.20
2010,06,21,10,14,13.20
2010,06,21,10,15,13.20
2010,06,21,10,16,13.20
2010,06,21,10,17,13.30
2010,06,21,10,18,13.30
2010,06,21,10,19,13.40
2010,06,21,10,20,13.40
2010,06,21,10,21,13.40
2010,06,21,10,22,13.50
2010,06,21,10,23,13.50
2010,06,21,10,24,13.60
2010,06,21,10,25,13.50
2010,06,21,10,26,13.50
2010,06,21,10,27,13.40
2010,06,21,10,28,13.40
2010,06,21,10,29,13.30
2010,06,21,10,30,13.30
2010,06,21,10,31,13.30
2010,06,21,10,32,13.30
2010,06,21,10,33,13.30
2010,06,21,10,34,13.30
2010,06,21,10,35,13.30
2010,06,21,10,36,13.40
2010,06,21,10,37,13.40
2010,06,21,10,38,13.40
2010,06,21,10,39,13.50
2010,06,21,10,40,13.60
2010,06,21,10,41,13.70
2010,06,21,10,42,13.80
2010,06,21,10,43,13.80
2010,06,21,10,44,13.80
2010,06,21,10,45,13.80
2010,06,21,10,46,13.80
2010,06,21,10,47,13.80
2010,06,21,10,48,13.80
2010,06,21,10,49,13.80
2010,06,21,10,50,13.80
2010,06,21,10,51,13.80
2010,06,21,10,52,13.90
2010,06,21,10,53,14.00
2010,06,21,10,54,14.20
2010,06,21,10,55,14.30
2010,06,21,10,56,14.30
2010,06,21,10,57,14.30
2010,06,21,10,58,14.30
2010,06,21,10,59,14.40
2010,06,21,11,00,14.50
2010,06,21,11,01,14.50
2010,06,21,11,02,14.50
2010,06,21,11,03,14.40
2010,06,21,11,04,14.40
2010,06,21,11,05,14.30
2010,06,21,11,06,14.20
2010,06,21,11,07,14.10
2010,06,21,11,08,14.10
2010,06,21,11,09,14.10
2010,06,21,11,10,14.10
2010,06,21,11,11,14.10
2010,06,21,11,12,14.10
2010,06,21,11,13,14.10
2010,06,21,11,14,14.20
2010,06,21,11,15,14.20
2010,06,21,11,16,14.30
2010,06,21,11,17,14.30
2010,06,21,11,18,14.40
2010,06,21,11,19,14.40
2010,06,21,11,20,14.40
2010,06,21,11,21,14.40
2010,06,21,11,22,14.40
2010,06,21,11,23,14.40
2010,06,21,11,24,14.30
2010,06,21,11,25,14.30
2010,06,21,11,26,14.30
2010,06,21,11,27,14.30
2010,06,21,11,28,14.30
2010,06,21,11,29,14.30
2010,06,21,11,30,14.30
2010,06,21,11,31,14.20
2010,06,21,11,32,14.10
2010,06,21,11,33,14.00
2010,06,21,11,34,13.90
2010,06,21,11,35,13.90
2010,06,21,11,36,13.90
2010,06,21,11,37,14.00
2010,06,21,11,38,14.00
2010,06,21,11,39,14.10
2010,06,21,11,40,14.10
2010,06,21,11,41,14.00
2010,06,21,11,42,13.90
2010,06,21,11,43,13.80
2010,06,21,11,44,13.60
2010,06,21,11,45,13.60
2010,06,21,11,46,13.50
2010,06,21,11,47,13.50
2010,06,21,11,48,13.40
2010,06,21,11,49,13.40
2010,06,21,11,50,13.50
2010,06,21,11,51,13.60
2010,06,21,11,52,13.60
2010,06,21,11,53,13.60
2010,06,21,11,54,13.50
2010,06,21,11,55,13.40
2010,06,21,11,56,13.30
2010,06,21,11,57,13.20
2010,06,21,11,58,13.20
2010,06,21,11,59,13.30
2010,06,21,12,00,13.30
2010,06,21,12,01,13.40
2010,06,21,12,02,13.50
2010,06,21,12,03,13.60
2010,06,21,12,04,13.60
2010,06,21,12,05,13.60
2010,06,21,12,06,13.60
2010,06,21,12,07,13.70
2010,06,21,12,08,13.70
2010,06,21,12,09,13.70
2010,06,21,12,10,13.70
2010,06,21,12,11,13.70
2010,06,21,12,12,13.70
2010,06,21,12,13,13.60
2010,06,21,12,14,13.50
2010,06,21,12,15,13.40
2010,06,21,12,16,13.30
2010,06,21,12,17,13.20
2010,06,21,12,18,13.20
2010,06,21,12,19,13.20
2010,06,21,12,20,13.30
2010,06,21,12,21,13.30
2010,06,21,12,22,13.30
2010,06,21,12,23,13.30
2010,06,21,12,24,13.20
2010,06,21,12,25,13.20
2010,06,21,12,26,13.10
2010,06,21,12,27,13.10
2010,06,21,12,28,13.10
2010,06,21,12,29,13.10
2010,06,21,12,30,13.20
2010,06,21,12,31,13.20
2010,06,21,12,32,13.20
2010,06,21,12,33,13.10
2010,06,21,12,34,13.10
2010,06,21,12,35,13.00
2010,06,21,12,36,13.00
2010,06,21,12,37,13.00
2010,06,21,12,38,13.00
2010,06,21,12,39,13.00
2010,06,21,12,40,12.90
2010,06,21,12,41,12.90
2010,06,21,12,42,13.00
2010,06,21,12,43,13.00
2010,06,21,12,44,13.00
2010,06,21,12,45,13.10
2010,06,21,12,46,13.10
2010,06,21,12,47,13.10
2010,06,21,12,48,13.20
2010,06,21,12,49,13.20
2010,06,21,12,50,13.30
2010,06,21,12,51,13.30
2010,06,21,12,52,13.20
2010,06,21,12,53,13.20
2010,06,21,12,54,13.10
2010,06,21,12,55,13.10
2010,06,21,12,56,13.10
2010,06,21,12,57,13.00
2010,06,21,12,58,13.00
2010,06,21,12,59,13.10
2010,06,21,13,00,13.10
2010,06,21,13,01,13.10
2010,06,21,13,02,13.10
2010,06,21,13,03,13.20
2010,06,21,13,04,13.20
2010,06,21,13,05,13.20
2010,06,21,13,06,13.20
2010,06,21,13,07,13.20
2010,06,21,13,08,13.30
2010,06,21,13,09,13.50
2010,06,21,13,10,13.70
2010,06,21,13,11,13.80
2010,06,21,13,12,13.90
2010,06,21,13,13,14.00
2010,06,21,13,14,14.00
2010,06,21,13,15,14.10
2010,06,21,13,16,14.00
2010,06,21,13,17,14.00
2010,06,21,13,18,14.00
2010,06,21,13,19,13.90
2010,06,21,13,20,13.90
2010,06,21,13,21,13.80
2010,06,21,13,22,13.70
2010,06,21,13,23,13.70
2010,06,21,13,24,13.60
2010,06,21,13,25,13.50
2010,06,21,13,26,13.50
2010,06,21,13,27,13.50
2010,06,21,13,28,13.50
2010,06,21,13,29,13.40
2010,06,21,13,30,13.40
2010,06,21,13,31,13.40
2010,06,21,13,32,13.50
2010,06,21,13,33,13.50
2010,06,21,13,34,13.50
2010,06,21,13,35,13.60
2010,06,21,13,36,13.70
2010,06,21,13,37,13.70
2010,06,21,13,38,13.80
2010,06,21,13,39,14.00
2010,06,21,13,40,14.10
2010,06,21,13,41,14.00
2010,06,21,13,42,13.90
2010,06,21,13,43,13.80
2010,06,21,13,44,13.80
2010,06,21,13,45,13.80
2010,06,21,13,46,13.80
2010,06,21,13,47,13.80
2010,06,21,13,48,13.80
2010,06,21,13,49,13.80
2010,06,21,13,50,13.80
2010,06,21,13,51,13.80
2010,06,21,13,52,14.00
2010,06,21,13,53,14.10
2010,06,21,13,54,14.00
2010,06,21,13,55,13.90
2010,06,21,13,56,13.90
2010,06,21,13,57,14.00
2010,06,21,13,58,14.00
2010,06,21,13,59,14.00
2010,06,21,14,00,14.00
2010,06,21,14,01,14.00
2010,06,21,14,02,14.10
2010,06,21,14,03,14.00
2010,06,21,14,04,14.00
2010,06,21,14,05,14.00
2010,06,21,14,06,14.00
2010,06,21,14,07,14.00
2010,06,21,14,08,14.00
2010,06,21,14,09,14.00
2010,06,21,14,10,13.90
2010,06,21,14,11,13.90
2010,06,21,14,12,13.90
2010,06,21,14,13,14.00
2010,06,21,14,14,13.90
2010,06,21,14,15,13.80
2010,06,21,14,16,13.80
2010,06,21,14,17,13.70
2010,06,21,14,18,13.60
2010,06,21,14,19,13.60
2010,06,21,14,20,13.50
2010,06,21,14,21,13.50
2010,06,21,14,22,13.50
2010,06,21,14,23,13.40
2010,06,21,14,24,13.30
2010,06,21,14,25,13.30
2010,06,21,14,26,13.40
2010,06,21,14,27,13.50
2010,06,21,14,28,13.60
2010,06,21,14,29,13.60
2010,06,21,14,30,13.60
2010,06,21,14,31,13.70
2010,06,21,14,32,13.70
2010,06,21,14,33,13.70
2010,06,21,14,34,13.80
2010,06,21,14,35,13.80
2010,06,21,14,36,13.70
2010,06,21,14,37,13.70
2010,06,21,14,38,13.70
2010,06,21,14,39,13.80
2010,06,21,14,40,13.80
2010,06,21,14,41,13.90
2010,06,21,14,42,13.90
2010,06,21,14,43,14.00
2010,06,21,14,44,14.00
2010,06,21,14,45,14.00
2010,06,21,14,46,13.90
2010,06,21,14,47,13.90
2010,06,21,14,48,13.90
2010,06,21,14,49,13.90
2010,06,21,14,50,13.90
2010,06,21,14,51,13.80
2010,06,21,14,52,13.80
2010,06,21,14,53,13.80
2010,06,21,14,54,13.80
2010,06,21,14,55,13.80
2010,06,21,14,56,13.80
2010,06,21,14,57,13.80
2010,06,21,14,58,13.80
2010,06,21,14,59,13.80
2010,06,21,15,00,13.80
2010,06,21,15,01,13.90
2010,06,21,15,02,13.90
2010,06,21,15,03,13.90
2010,06,21,15,04,13.90
2010,06,21,15,05,13.90
2010,06,21,15,06,14.00
2010,06,21,15,07,13.90
2010,06,21,15,08,13.90
2010,06,21,15,09,13.80
2010,06,21,15,10,13.70
2010,06,21,15,11,13.60
2010,06,21,15,12,13.60
2010,06,21,15,13,13.50
2010,06,21,15,14,13.40
2010,06,21,15,15,13.40
2010,06,21,15,16,13.30
2010,06,21,15,17,13.30
2010,06,21,15,18,13.30
2010,06,21,15,19,13.20
2010,06,21,15,20,13.20
2010,06,21,15,21,13.20
2010,06,21,15,22,13.20
2010,06,21,15,23,13.20
2010,06,21,15,24,13.20
2010,06,21,15,25,13.20
2010,06,21,15,26,13.20
2010,06,21,15,27,13.30
2010,06,21,15,28,13.30
2010,06,21,15,29,13.30
2010,06,21,15,30,13.30
2010,06,21,15,31,13.40
2010,06,21,15,32,13.40
2010,06,21,15,33,13.50
2010,06,21,15,34,13.50
2010,06,21,15,35,13.50
2010,06,21,15,36,13.60
2010,06,21,15,37,13.70
2010,06,21,15,38,13.70
2010,06,21,15,39,13.70
2010,06,21,15,40,13.70
2010,06,21,15,41,13.60
2010,06,21,15,42,13.50
2010,06,21,15,43,13.50
2010,06,21,15,44,13.40
2010,06,21,15,45,13.40
2010,06,21,15,46,13.50
2010,06,21,15,47,13.60
2010,06,21,15,48,13.60
2010,06,21,15,49,13.60
2010,06,21,15,50,13.60
2010,06,21,15,51,13.60
2010,06,21,15,52,13.60
2010,06,21,15,53,13.60
2010,06,21,15,54,13.50
2010,06,21,15,55,13.40
2010,06,21,15,56,13.30
2010,06,21,15,57,13.30
2010,06,21,15,58,13.30
2010,06,21,15,59,13.30
2010,06,21,16,00,13.40
2010,06,21,16,01,13.40
2010,06,21,16,02,13.40
2010,06,21,16,03,13.30
2010,06,21,16,04,13.30
2010,06,21,16,05,13.40
2010,06,21,16,06,13.40
2010,06,21,16,07,13.40
2010,06,21,16,08,13.50
2010,06,21,16,09,13.50
2010,06,21,16,10,13.50
2010,06,21,16,11,13.40
2010,06,21,16,12,13.40
2010,06,21,16,13,13.40
2010,06,21,16,14,13.40
2010,06,21,16,15,13.40
2010,06,21,16,16,13.50
2010,06,21,16,17,13.60
2010,06,21,16,18,13.70
2010,06,21,16,19,13.70
2010,06,21,16,20,13.80
2010,06,21,16,21,13.90
2010,06,21,16,22,14.00
2010,06,21,16,23,14.00
2010,06,21,16,24,14.00
2010,06,21,16,25,14.00
2010,06,21,16,26,14.00
2010,06,21,16,27,14.00
2010,06,21,16,28,14.10
2010,06,21,16,29,14.20
2010,06,21,16,30,14.30
2010,06,21,16,31,14.30
2010,06,21,16,32,14.30
2010,06,21,16,33,14.30
2010,06,21,16,34,14.30
2010,06,21,16,35,14.40
2010,06,21,16,36,14.50
2010,06,21,16,37,14.60
2010,06,21,16,38,14.50
2010,06,21,16,39,14.40
2010,06,21,16,40,14.30
2010,06,21,16,41,14.30
2010,06,21,16,42,14.40
2010,06,21,16,43,14.40
2010,06,21,16,44,14.40
2010,06,21,16,45,14.40
2010,06,21,16,46,14.50
2010,06,21,16,47,14.50
2010,06,21,16,48,14.50
2010,06,21,16,49,14.40
2010,06,21,16,50,14.50
2010,06,21,16,51,14.50
2010,06,21,16,52,14.40
2010,06,21,16,53,14.30
2010,06,21,16,54,14.30
2010,06,21,16,55,14.30
2010,06,21,16,56,14.20
2010,06,21,16,57,14.20
2010,06,21,16,58,14.10
2010,06,21,16,59,14.00
2010,06,21,17,00,13.90
2010,06,21,17,01,13.90
2010,06,21,17,02,13.90
2010,06,21,17,03,14.00
2010,06,21,17,04,14.10
2010,06,21,17,05,14.10
2010,06,21,17,06,14.00
2010,06,21,17,07,13.90
2010,06,21,17,08,13.90
2010,06,21,17,09,13.90
2010,06,21,17,10,13.90
2010,06,21,17,11,14.00
2010,06,21,17,12,14.10
2010,06,21,17,13,14.10
2010,06,21,17,14,14.10
2010,06,21,17,15,14.10
2010,06,21,17,16,14.20
2010,06,21,17,17,14.30
2010,06,21,17,18,14.30
2010,06,21,17,19,14.20